Home > Weather > Smara > Past weeks

Past Weather in Smara, Western Sahara — Yesterday and Last 2 Weeks

Now
82 °F

Clear.


Feels Like: 83 °F
Forecast: 68 / 102 °F
Wind: 25 mph from Northeast

Location: Laayoune/Hassan Isl

Current Time: Jul 28, 2016 at 1:38:25 PM

Latest Report: Jul 28, 2016 at 1:00 PM


Visibility: 5 mi

Pressure: 29.98 "Hg

Humidity: 51%

Dew Point: 63 °F

Location of SmaraLocation

Past Weather in Smara — Graph

°F

Smara Temperature Yesterday

Maximum temperature yesterday: 90 °F (at 2:00 PM)
Minimum temperature yesterday: 72 °F (at 6:00 AM)
Average temperature yesterday: 78 °F

High & Low Weather Summary for the Past Weeks

 TemperatureHumidityPressure
High102 °F (Jul 20, 3:00 PM)94% (Jul 15, 4:00 AM)30.04 "Hg (Jul 15, 4:00 AM)
Low66 °F (Jul 16, 7:00 PM)26% (Jul 20, 3:00 PM)29.83 "Hg (Jul 19, 5:00 PM)
Average78 °F66%29.92 "Hg
* Reported Jul 13 12:00 PM — Jul 28 12:00 PM, Smara, Weather by CustomWeather, © 2016

Note: Actual official high and low records may vary slightly from our data, if they occured in-between our weather recording intervals... More about our weather records

Advertising

Smara Weather History for the Previous 24 Hours

Scroll right to see more
 ConditionsComfort  
Time TempWeatherWind HumidityBarometerVisibility
12:00 PM
Thu, Jul 28
79 °FClear.23 mph58%29.98 "Hg5 mi
11:00 AM77 °FClear.24 mph61%30.01 "Hg5 mi
10:00 AM75 °FPartly sunny.25 mph65%29.98 "Hg5 mi
9:00 AM72 °FPartly cloudy.25 mph73%29.98 "Hg5 mi
8:00 AM70 °FOvercast.23 mph78%29.98 "Hg5 mi
7:00 AM70 °FOvercast.23 mph78%29.98 "Hg4 mi
6:00 AM68 °FPassing clouds.25 mph94%29.95 "HgN/A
5:00 AM70 °FPassing clouds.28 mph83%29.95 "HgN/A
3:00 AM70 °FPassing clouds.25 mph78%29.95 "Hg5 mi
2:00 AM70 °FPassing clouds.26 mph83%29.98 "HgN/A
1:00 AM70 °FPassing clouds.30 mph83%30.01 "HgN/A
12:00 AM72 °FPassing clouds.28 mph78%29.98 "HgN/A
11:00 PM
Wed, Jul 27
72 °FPassing clouds.28 mph78%29.98 "Hg5 mi
10:00 PM72 °FClear.28 mph78%29.98 "Hg5 mi
9:00 PM75 °FClear.30 mph69%29.95 "Hg4 mi
8:00 PM79 °FClear.29 mph61%29.95 "Hg4 mi
7:00 PM84 °FClear.25 mph51%29.95 "Hg3 mi
6:00 PM84 °FClear.28 mph51%29.92 "Hg3 mi
5:00 PM84 °FClear.26 mph51%29.95 "Hg3 mi
4:00 PM86 °FClear.30 mph49%29.95 "Hg3 mi
3:00 PM88 °FClear.29 mph46%29.95 "Hg3 mi
2:00 PM90 °FClear.28 mph41%29.98 "Hg5 mi
1:00 PM88 °FClear.23 mph46%29.98 "Hg5 mi
Weather by CustomWeather, © 2016

See weather overviewHow to use our weather pages